Regional Weather Roundup
Issued by NWS

Home | Current Version | Previous Version | Text Only | Print | Product List | Glossary On
Versions: 1 2 3 4 5 6 7 8 9 10 11 12 13 14 15 16 17 18 19 20 21 22 23 24 25 26 27 28 29 30 31 32 33 34 35 36 37 38 39 40 41 42 43 44 45 46 47 48 49 50
000
ASUS43 KLSX 041210
RWRMO

WEATHER SUMMARY FOR MISSOURI
NATIONAL WEATHER SERVICE SPRINGFIELD MO
700 AM CDT TUE AUG 04 2015

NOTE: "FAIR" INDICATES FEW OR NO CLOUDS BELOW 12,000 FEET WITH NO
       SIGNIFICANT WEATHER AND/OR OBSTRUCTIONS TO VISIBILITY.
       CURRENT SKY AND/OR WEATHER CONDITIONS ARE NOT AVAILABLE FOR
       CHILLICOTHE AND FARMINGTON.

MOZ001>031-035>038-043-044-053-054-041300-
...NORTHERN AND WESTERN MISSOURI...

CITY           SKY/WX    TMP DP  RH WIND       PRES   REMARKS
KANSAS CTY INT CLOUDY    72  66  81 E9        29.97S
6HR MIN TEMP:  71; 6HR MAX TEMP:  75;

KANSAS C DTWN  CLOUDY    74  67  78 VRB5      29.96S
6HR MIN TEMP:  73; 6HR MAX TEMP:  77;

LEE`S SUMMIT   CLOUDY    72  67  84 SE8       29.97F
6HR MIN TEMP:  71; 6HR MAX TEMP:  74;

ST JOSEPH      PTCLDY    70  66  87 SE6       29.96R
6HR MIN TEMP:  70; 6HR MAX TEMP:  74;

CHILLICOTHE      N/A     70  66  87 N5        30.00R
6HR MIN TEMP:  70; 6HR MAX TEMP:  74; 6HR PCP:  0.01;

KIRKSVILLE     CLOUDY    66  62  87 E8        29.99F
6HR MIN TEMP:  65; 6HR MAX TEMP:  68; 6HR PCP:  0.17;


$$
MOZ066>068-077>081-088>096-101>105-041300-
...SOUTHWEST MISSOURI...

CITY           SKY/WX    TMP DP  RH WIND       PRES   REMARKS
SPRINGFIELD    MOCLDY    73  68  84 SE5       30.01R
6HR MIN TEMP:  71; 6HR MAX TEMP:  74;

JOPLIN         MOCLDY    74  65  73 SE5       29.98R
6HR MIN TEMP:  70; 6HR MAX TEMP:  75;


$$
MOZ032>034-039>042-045>050-055>058-069>072-041300-
...CENTRAL MISSOURI...

CITY           SKY/WX    TMP DP  RH WIND       PRES   REMARKS
COLUMBIA       PTCLDY    69  67  93 E3        29.99S
6HR MIN TEMP:  69; 6HR MAX TEMP:  74;

JEFFERSON CITY PTCLDY    71  66  84 CALM      29.98S
6HR MIN TEMP:  70; 6HR MAX TEMP:  76;

ROLLA          PTCLDY    69  69 100 CALM      29.99R FOG
6HR MIN TEMP:  67; 6HR MAX TEMP:  73;

SEDALIA        MOCLDY    70  66  87 S5        30.00S
6HR MIN TEMP:  70; 6HR MAX TEMP:  76;

WHITEMAN AFB   PTCLDY    71  68  89 E6        29.98R
WARRENSBURG    MOCLDY    70  68  94 E3        29.98S
OSAGE BEACH    CLOUDY    70  68  94 NE6       30.00R VSB<1/4

$$
MOZ051-052-059>065-041300-
...EAST CENTRAL MISSOURI...

CITY           SKY/WX    TMP DP  RH WIND       PRES   REMARKS
ST LOUIS INTL  CLOUDY    75  65  70 E3        29.99S
6HR MIN TEMP:  75; 6HR MAX TEMP:  80;

SPIRIT OF STL  MOCLDY    72  69  90 CALM      29.97S
6HR MIN TEMP:  71; 6HR MAX TEMP:  75;

ST CHARLES     CLOUDY    72  68  87 N5        29.98R
6HR MIN TEMP:  72; 6HR MAX TEMP:  78; 6HR PCP: TRACE;


$$
MOZ072>076-082>087-097>100-106>115-041300-
...SOUTH CENTRAL AND SOUTHEAST MISSOURI...

CITY           SKY/WX    TMP DP  RH WIND       PRES   REMARKS
CAPE GIRARDEAU CLOUDY    75  73  93 CALM      29.97R
6HR MIN TEMP:  72; 6HR MAX TEMP:  75;

FARMINGTON     PTCLDY    72  72 100 CALM      30.03S
6HR MIN TEMP:  70; 6HR MAX TEMP:  73;

POPLAR BLUFF   MOCLDY    75  73  93 CALM      29.96R
6HR MIN TEMP:  73; 6HR MAX TEMP:  75;

WEST PLAINS    PTCLDY    70  66  87 CALM      30.03R
6HR MIN TEMP:  68; 6HR MAX TEMP:  73;


$$



USA.gov is the U.S. government's official web portal to all federal, state and local government web resources and services.